Regional Weather Roundup
Issued by NWS

Current Version | Previous Version | Text Only | Print | Product List | Glossary On
Versions: 1 2 3 4 5 6 7 8 9 10 11 12 13 14 15 16 17 18 19 20 21 22 23 24 25 26 27 28 29 30 31 32 33 34 35 36 37 38 39 40 41 42 43 44 45 46 47 48 49 50
000
ASUS44 KOUN 030710
RWROK
OKCRWROK ALL

WEATHER ROUNDUP FOR OKLAHOMA
NATIONAL WEATHER SERVICE NORMAN OK
ISSUED BY NATIONAL WEATHER SERVICE TULSA OK
200 AM CDT MON OCT 03 2022

NOTE: "FAIR" INDICATES FEW OR NO CLOUDS BELOW 12,000 FEET WITH NO
SIGNIFICANT WEATHER AND/OR OBSTRUCTIONS TO VISIBILITY.

CITY           SKY/WX   TEMP DEWPT RH  WIND    PRES    REMARKS

OKZ001>007-009>012-014-015-017-030800-
NORTHWEST OKLAHOMA AND THE PANHANDLE

CITY           SKY/WX    TMP DP  RH WIND       PRES   REMARKS
GAGE           CLEAR     56  34  43 S8        30.19F
ENID VANCE AFB CLEAR     61  37  40 E8        30.16F
GUYMON         CLEAR     61  33  35 S10       30.20R
$$

OKZ016-021>023-033>039-044-045-030800-
SOUTHWEST OKLAHOMA

CITY           SKY/WX    TMP DP  RH WIND       PRES   REMARKS
ALTUS AFB      CLEAR     54  39  56 E6        30.16S
CLINTON        CLEAR     59  37  44 S7        30.20S
FREDERICK      CLEAR     56  33  42 CALM      30.15S
HOBART         CLEAR     59  35  40 S6        30.19S
LAWTON         CLEAR     53  41  63 CALM      30.18S
$$

OKZ018>020-024>031-030800-
CENTRAL OKLAHOMA

CITY           SKY/WX    TMP DP  RH WIND       PRES   REMARKS
OKLAHOMA CITY  CLEAR     59  40  49 CALM      30.19S
OKC/WILEY POST CLEAR     61  38  42 S5        30.18F
OKC/TINKER AFB CLEAR     61  37  40 CALM      30.16S
STILLWATER     CLEAR     51  41  68 CALM      30.18F
GUTHRIE        CLEAR     61  36  39 SE3       30.19S
$$

OKZ008-013-054>072-030800-
NORTHEAST OKLAHOMA

CITY           SKY/WX    TMP DP  RH WIND       PRES   REMARKS
TULSA          CLEAR     56  49  77 CALM      30.19F
TULSA/JONES    CLEAR     54  46  74 CALM      30.19S
PONCA CITY     CLEAR     64  40  41 E8        30.19F
MUSKOGEE       CLEAR     56  43  61 CALM      30.21F
BARTLESVILLE   CLEAR     46  41  82 CALM      30.22S
$$

OKZ032-040>043-046>053-073>077-030800-
SOUTHEAST OKLAHOMA

CITY           SKY/WX    TMP DP  RH WIND       PRES   REMARKS
ARDMORE/DWNTWN PTCLDY    52  45  76 CALM      30.18S
MCALESTER      CLEAR     57  40  52 E3        30.18F
$$



USA.gov is the U.S. government's official web portal to all federal, state and local government web resources and services.